CZ-6A DEB, 54633

Orbit data source: Space-Track

CZ-6A DEB, 54633 is space debris in SSO originally from a launch on Fri, 11 Nov 2022 UTC launched from the Taiyaun Space Center, China (TSC). Debris objects in space refer to the collection of defunct objects orbiting the Earth. Examples of debris include non-operational satellites, rocket bodies, and fragments generated from explosions, collisions, or faulty payload assembly.

Loading next visibility...
Identifier
54633, 2022-151PK
Orbit
SSO
Country
Flag of CNCN / PRC
Related business
Manufacturer
SAST
Mission
Spacecraft
Bus & Motor
Unknown
Mass
Unknown
Launch date (UTC)
2022-11-11 (4 years ago)
Launch vehicle
Unknown
Launch site
Taiyaun Space Center, China (TSC)
Object type
Payload
Rocket body
Debris
Shape & HBR
Unknown shape, 0.1 m
Radar Cross Section
Medium (>0.1 m² and <1 m²)

Expand to show TLE details & history
Last TLE update: 2 days ago

TLE from 2 days ago
0 CZ-6A DEB
1 54633U 22151PK  26171.11391499  .00009016  00000-0  14188-2 0  9996
2 54633  98.6260 236.7181 0066460 274.8055  84.5564 14.71275603189573
Epoch: 2026-06-20T02:44Z
TLE epoch observation values (Epoch: 2026-06-20T02:44:02.255Z)
Latitude
0.00007°
Longitude
-72.6245°
Altitude
655.858 km
Speed
7.532 km/s
True Right ascension
15h 46m 52s
True Declination
0° 00' 00"
Sunlit
Object was in full shadow at epoch
Visualization orbit readout
Latitude
Unknown
Longitude
Unknown
Altitude
Unknown
Speed
Unknown
Apparent Right ascension
Unknown
Apparent Declination
Unknown
Sunlit
N/A
Visualization observer readout
Local Sidereal Time
21:55:00
Azimuth
Unknown
Elevation
Unknown
Doppler factor
Unknown
Orbital elements
Apogee altitude
700.821 km
Perigee altitude
607.349 km
Semi-major axis
7,032.222 km
Eccentricity
0.00665
Inclination
98.626°
RAAN
236.7181°
Arg. of periapsis
274.8055°
True anomaly
85.31512°
Mean anomaly
84.5564°
Eccentric anomaly
84.9357°
Mean motion
3.68048 °/min
Orbital period
97.81 mins
BSTAR
0.0014188
Loading maneuver chart data...
Computing Atmospheric mass density...
Loading historical data...
Loading historical data...
Loading historical data...
Loading historical data...
Loading historical data...
Loading historical data...
Loading historical data...

Documentation

Showing up to 5 results
|